Location: ???? ?????
(37.9132°N, 22.9869°E)
Time: 21:51:58
(UTC+00:00)

Okean O Rocket - Pass Details

Date: 04 August 2024
Orbit: 617 x 638 km, 98.1° (Epoch: 18 September)

Event Time Altitude Azimuth Distance (km) Brightness Sun altitude
Exits shadow 18:30:48 - 159° (SSE) 2,095 3.8 -10.9°
Reaches altitude 10° 18:31:05 10° 159° (SSE) 1,981 3.7 -10.9°
Maximum altitude 18:35:22 72° 75° (ENE) 659 1.5 -11.6°
Drops below altitude 10° 18:39:43 10° 352° (N) 2,007 4.8 -12.4°
Sets 18:41:55 0° 350° (N) 2,922 5.7 -12.7°
